DIRECTV 14

Last updated on Thu Jul 03 2025 00:02:46 GMT+0000 (Coordinated Universal Time)

1 40333U 14078B 25183.54698656 -.00000118 00000+0 00000+0 0 9990 2 40333 0.0221 28.0903 0000316 115.1795 235.2532 1.00270134 38530
UTC large
Height (km)
Speed (km/s)
/
Latitude / Longitude
Inclination (degrees)
Orbital Period (minutes)
Azimuth
Elevation
Range (km)
Doppler Factor

Next 0 passes for location: London (51.5072 / 0.1276)

Sorry there are no passes over London.